This demonstration page uses our WeatherBlox Daily Observations layout. Learn more.

Left ArrowRight Arrow

31.31129, -92.44514

Hourly Observations for August 25, 2016

Temp ( °F °C ) Dew Point ( °F °C ) Humidity (%) Winds ( mph kmh ) Pressure ( in mb ) Visibility ( mi km ) Precip ( " mm )
12:53 am 00:53 Clear with Mist and Fog 78 25.6 77 25 97 97 Calm 30.07 1018 6 10 0.00 0.00
1:53 am 01:53 Clear with Mist and Fog 77 25 76 24.4 96 96 Calm 30.07 1018 4 6 0.00 0.00
2:53 am 02:53 Clear with Mist and Fog 76 24.4 76 24.4 100 100 Calm 30.06 1018 5 8 0.00 0.00
3:53 am 03:53 Clear 77 25 76 24.4 96 96 Calm 30.06 1018 7 11 0.00 0.00
4:53 am 04:53 Clear with Mist and Fog 76 24.4 76 24.4 100 100 Calm 30.06 1018 4 6 0.00 0.00
5:53 am 05:53 Mostly Clear with Mist and Fog 76 24.4 76 24.4 100 100 Calm 30.06 1018 4 6 0.00 0.00
6:53 am 06:53 Sunny with Mist and Fog 75 23.9 75 23.9 100 100 Calm 30.09 1019 3 5 0.00 0.00
7:53 am 07:53 Sunny with Mist and Fog 78 25.6 77 25 97 97 SE 3 6 30.10 1019 6 10 0.00 0.00
8:53 am 08:53 Sunny 81 27.2 77 25 88 88 SE 3 6 30.10 1019 7 11 0.00 0.00
9:53 am 09:53 Sunny 84 28.9 76 24.4 77 77 Calm 30.09 1019 9 14 0.00 0.00
10:53 am 10:53 Sunny 88 31.1 76 24.4 68 68 Calm 30.09 1019 10 16 0.00 0.00
11:53 am 11:53 Sunny 90 32.2 77 25 66 66 VRB 5 7 30.08 1019 9 14 0.00 0.00
12:53 pm 12:53 Partly Cloudy 90 32.2 77 25 66 66 ENE 3 6 30.06 1018 9 14 0.00 0.00
1:31 pm 13:31 Mostly Cloudy with Thunderstorms 87 30.6 78 25.6 75 75 NNE 8 13 30.03 1017 9 14 0.00 0.03
1:46 pm 13:46 Cloudy with Nearby Thunderstorms 85 29.4 79 26.1 82 82 Calm 30.06 1018 8 13 0.00 0.03
1:53 pm 13:53 Cloudy with Thunderstorms 84 28.9 79 26.1 85 85 ESE 3 6 30.05 1018 6 10 0.01 0.25
2:16 pm 14:16 Cloudy with Strong Thunderstorms 79 26.1 74 23.3 85 85 ENE 12 19 30.03 1017 2 3 0.08 2.03
2:25 pm 14:25 Cloudy with Thunderstorms 78 25.6 73 22.8 85 85 E 12 19 30.03 1017 3 5 0.09 2.29
2:34 pm 14:34 Cloudy with Strong Thunderstorms 76 24.4 72 22.2 88 88 E 10 17 30.03 1017 2 3 0.09 2.29
2:44 pm 14:44 Cloudy with Strong Thunderstorms 76 24.4 73 22.8 91 91 ESE 10 17 30.03 1017 3 5 0.11 2.79
2:53 pm 14:53 Cloudy with Strong Thunderstorms 75 23.9 73 22.8 94 94 SSE 10 17 30.02 1017 3 5 0.12 3.05
3:00 pm 15:00 Cloudy with Strong Thunderstorms 76 24.4 74 23.3 94 94 S 5 7 30.00 1016 2 3 0.01 0.25
3:07 pm 15:07 Cloudy with Strong Thunderstorms 76 24.4 75 23.9 97 97 SW 5 7 30.00 1016 2 3 0.02 0.51
3:15 pm 15:15 Cloudy with Strong Thunderstorms 76 24.4 74 23.3 94 94 WSW 6 9 30.00 1016 2 2 0.03 0.76
3:19 pm 15:19 Cloudy with Nearby Thunderstorms 77 25 74 23.3 90 90 W 6 9 30.00 1016 3 4 0.03 0.76
3:35 pm 15:35 Mostly Cloudy with Thunderstorms 77 25 75 23.9 94 94 WNW 7 11 30.00 1016 3 4 0.25 6.35
3:53 pm 15:53 Mostly Cloudy with Thunderstorms 77 25 74 23.3 90 90 W 3 6 30.03 1017 3 4 0.25 6.35
4:00 pm 16:00 Cloudy with Thunderstorms 78 25.6 74 23.3 87 87 WSW 8 13 30.03 1017 10 16 0.00 0.03
4:40 pm 16:40 Mostly Cloudy with Thunderstorms 74 23.3 73 22.8 97 97 SSE 14 22 30.03 1017 3 4 0.08 2.03
4:53 pm 16:53 Partly Cloudy with Thunderstorms 73 22.8 72 22.2 96 96 S 15 24 30.03 1017 5 8 0.09 2.29
5:34 pm 17:34 Sunny with Nearby Thunderstorms 74 23.3 73 22.8 97 97 SE 10 17 30.06 1018 8 13 0.01 0.25
5:53 pm 17:53 Sunny with Nearby Thunderstorms 74 23.3 73 22.8 97 97 ESE 8 13 30.04 1017 10 16 0.01 0.25
6:09 pm 18:09 Partly Cloudy with Thunderstorms 74 23.3 73 22.8 97 97 SE 7 11 30.03 1017 10 16 0.01 0.25
6:22 pm 18:22 Mostly Cloudy with Rain 74 23.3 73 22.8 97 97 E 3 6 30.00 1016 6 10 0.04 1.02
6:53 pm 18:53 Partly Cloudy with Light Rain 74 23.3 73 22.8 97 97 E 5 7 30.02 1017 8 13 0.09 2.29
7:53 pm 19:53 Clear 74 23.3 74 23.3 100 100 W 6 9 30.02 1017 7 11 0.01 0.25
8:49 pm 20:49 Mostly Clear 73 23 73 23 100 100 NNW 6 9 30.06 1018 8 13 0.00 0.00
8:53 pm 20:53 Mostly Clear 74 23.3 74 23.3 100 100 NNW 6 9 30.07 1018 9 14 0.00 0.00
9:53 pm 21:53 Clear 74 23.3 73 22.8 97 97 NNE 3 6 30.08 1019 9 14 0.00 0.00
10:18 pm 22:18 Mostly Clear 74 23.3 73 22.8 97 97 NNE 6 9 30.09 1019 8 13 0.00 0.00
10:53 pm 22:53 Mostly Clear 74 23.3 73 22.8 97 97 Calm 30.09 1019 8 13 0.00 0.00
11:53 pm 23:53 Partly Cloudy 74 23.3 73 22.8 97 97 NNE 5 7 30.09 1019 8 13 0.00 0.00

Powered by AerisWeather